This is the latest recevied weather packets stored in our database for station/object KE8ZLU. If no packets are shown the sender has not sent any weather packets the latest 10 day(s).
| Time | Temp. | Humidity | Pressure | Rain* | Wind** | Luminosity | Snow |
|---|---|---|---|---|---|---|---|
| 1778203204 | 9.44° C | 64% | 1012.5 hPa | 0 mm | - | 0 W/m² | - |
| 1778202903 | 9.44° C | 63% | 1012.4 hPa | 0 mm | - | 0 W/m² | - |
| 1778202600 | 10° C | 62% | 1012.5 hPa | 0 mm | - | 0 W/m² | - |
| 1778202297 | 10° C | 61% | 1012.9 hPa | 0 mm | - | 0 W/m² | - |
| 1778201994 | 10° C | 59% | 1012.8 hPa | 0 mm | - | 0 W/m² | - |
| 1778201690 | 10.56° C | 57% | 1012.8 hPa | 0 mm | - | 0 W/m² | - |
| 1778201387 | 10.56° C | 54% | 1012.6 hPa | 0 mm | - | 2 W/m² | - |
| 1778201083 | 10.56° C | 54% | 1012.6 hPa | 0 mm | - | 2 W/m² | - |
| 1778200780 | 10.56° C | 53% | 1012.4 hPa | 0 mm | - | 2 W/m² | - |
| 1778200477 | 10.56° C | 53% | 1012.5 hPa | 0 mm | - | 2 W/m² | - |
| 1778200174 | 11.11° C | 52% | 1012.4 hPa | 0 mm | - | 3 W/m² | - |
| 1778199871 | 11.11° C | 51% | 1012.5 hPa | 0 mm | - | 6 W/m² | - |
| 1778199566 | 10.56° C | 50% | 1012.4 hPa | 0 mm | - | 4 W/m² | - |
| 1778199263 | 11.11° C | 52% | 1012.3 hPa | 0 mm | - | 5 W/m² | - |
| 1778198959 | 11.11° C | 49% | 1012.4 hPa | 0 mm | - | 7 W/m² | - |
| 1778198655 | 11.11° C | 49% | 1012.3 hPa | 0 mm | - | 12 W/m² | - |
| 1778198353 | 11.11° C | 48% | 1012.2 hPa | 0 mm | - | 20 W/m² | - |
| 1778198050 | 11.11° C | 47% | 1012.2 hPa | 0 mm | - | 24 W/m² | - |
| 1778197747 | 11.11° C | 47% | 1012.2 hPa | 0 mm | - | 28 W/m² | - |
| 1778197443 | 11.11° C | 46% | 1012.2 hPa | 0 mm | - | 26 W/m² | - |
| 1778197140 | 11.11° C | 47% | 1012.3 hPa | 0 mm | - | 20 W/m² | - |
| 1778196837 | 11.11° C | 46% | 1012.3 hPa | 0 mm | - | 25 W/m² | - |
| 1778196535 | 11.11° C | 46% | 1012.5 hPa | 0 mm | - | 32 W/m² | - |
| 1778196231 | 11.11° C | 46% | 1012.3 hPa | 0 mm | - | 39 W/m² | - |
| 1778195929 | 11.11° C | 47% | 1012.3 hPa | 0 mm | - | 21 W/m² | - |
* Rain latest hour (hover to see other rain measurements)
** Current wind speed in m/s (hover to see current wind gust speed)